CZ-6A DEB

Satellite information

Favourite Embed

Satellite Type and Status

DEBRISIN ORBIT

Key statistics

Satellite CZ-6A DEB at a glance.

Uptime

1132

Days in orbit

Revolutions

≈ 13.8

Per day

Orbit

SSO

Sun Synchronous Orbit

Inclination

98.9

Latest

Satellite identification and parameters

Extended collection of information and parameters for CZ-6A DEB.

Object identification

Identified? True

Debris? True

Object name: CZ-6A DEB

International designator: 2022-151EQ

Object number (NORAD): 54416

Object ID (CCSDS): 54416

Country: PEOPLES REPUBLIC OF CHINA (PRC)

Current information (Y/N): Y

RCS size: SMALL

Orbital parameters

Period: 104.137 minutes

Inclination: 98.9111 deg

SMA: 7332.123 km

Apoapsis: 1082.13 km

Periapsis: 825.847 km

RAAN: 301.4459 deg

Eccentricy: 0.01747676

Argument of periapsis: 281.5371 deg

Mean anomaly: 76.6208 deg

Mean motion: 13.82795981 rev/day

Mean motion (dot): 0.00000327 rev/day2

B* drag term: 0.00030199477 1/REarth

Two-line elements (TLE)

Creation date: Dec. 16, 2025, 2:19 a.m.

Reference frame: TEME

Reference center: EARTH

Epoch: Dec. 15, 2025, 7:37 p.m. UTC

TLE line 0: 0 CZ-6A DEB

TLE line 1: 1 54416U 22151EQ 25349.81780024 .00000327 00000-0 30199-3 0 9991

TLE line 2: 2 54416 98.9111 301.4459 0174768 281.5371 76.6208 13.82795981155808

Live tracking on map

Real-time ground track for satellite CZ-6A DEB.

In-orbit conjunctions

A list of the most updated potential collisions computed for object CZ-6A DEB.

Target Orbit TCA Probability of collision Miss distance Type
CZ-6A DEB LEO 2025-07-28 00:24:43 0.0001316127 401.0 (m) DEBRIS
FENGYUN 1C DEB SSO 2024-11-12 03:34:18 0.0006611213 186.0 (m) DEBRIS
FENGYUN 1C DEB SSO 2024-09-25 22:49:26 0.000852285 337.0 (m) DEBRIS

Associated space launch

Chinese satellite reported for atmospheric/ocean/environmental/spatial parameter research purposes, details TBD.

CZ-6A DEB was lifted into orbit during the mission ‘Long March 6A | Yunhai 3’, on board a Long March 6A space rocket.

The launch took place on Nov. 11, 2022, 10:52 p.m. from Launch Complex 9A.

For more information about the launch, click the button.

Launch to space Long March 6A | Yunhai 3
Long March 6A | Yunhai 3

Agency: N/A

Status: Launch Successful

Launch date: Nov. 11, 2022, 10:52 p.m. UTC

Rocket: Long March 6A

Launch pad: Launch Complex 9A

Location: Taiyuan Satellite Launch Center, People's Republic of China

...

Latest news about this satellite

There are no fresh news available about this satellite. Check back as we update our databases every day.


Newsletter sign-up

Weekly statistics, charts and insights to help you stay on top of the space industry.